Back to catalog

ARIANE 44LP+ R/B

AliveGTO
NORAD 23127·ROCKET BODY·🇫🇷 France

Launched Jun 17, 1994 from Guiana Space Centre

Loading…

TLE

AgingSource: Space-Track

Epoch: Sep 14, 2026, 11:44 UTC

1 23127U 94034D   26257.48927647  .00000062  00000-0  42597-3 0  9992
2 23127   7.3348 276.7936 7225817 196.5699 113.1154  2.26782655263650

Track ARIANE 44LP+ R/B in real time with AllMySat

Download on the App Store